| time (UTC) | temp C | wind direction | speed KPH | gust KPH | rain 1hr cm | rain 24hr cm | rain mn cm | humidity % | barometer mb |
| 20260507190017 | 11 | 49 | 1.6 | 8.0 | 0.00 | 0.00 | 0.00 | 83 | 1017.1 |
| 20260507185516 | 11 | 53 | 3.2 | 8.0 | 0.00 | 0.03 | 0.00 | 83 | 1017.1 |
| 20260507185020 | 11 | 52 | 1.6 | 6.4 | 0.00 | 0.03 | 0.00 | 84 | 1017.1 |
| 20260507184518 | 11 | 51 | 0.0 | 6.4 | 0.00 | 0.03 | 0.00 | 84 | 1016.9 |
| 20260507184016 | 12 | 51 | 1.6 | 4.8 | 0.00 | 0.03 | 0.00 | 83 | 1016.9 |
| 20260507183514 | 12 | 51 | 1.6 | 4.8 | 0.00 | 0.03 | 0.00 | 83 | 1016.9 |
| 20260507183014 | 12 | 51 | 0.0 | 6.4 | 0.00 | 0.03 | 0.00 | 82 | 1016.9 |
| 20260507182514 | 12 | 51 | 1.6 | 6.4 | 0.00 | 0.03 | 0.00 | 82 | 1016.8 |
| 20260507182014 | 12 | 49 | 1.6 | 6.4 | 0.00 | 0.03 | 0.00 | 80 | 1016.8 |
| 20260507181513 | 12 | 84 | 1.6 | 6.4 | 0.00 | 0.03 | 0.00 | 80 | 1016.7 |
| 20260507181015 | 12 | 88 | 0.0 | 4.8 | 0.00 | 0.03 | 0.00 | 79 | 1016.7 |
| 20260507180514 | 12 | 88 | 0.0 | 4.8 | 0.00 | 0.03 | 0.00 | 79 | 1016.7 |
| 20260507180013 | 12 | 88 | 0.0 | 4.8 | 0.00 | 0.03 | 0.00 | 80 | 1016.7 |
| 20260507175513 | 12 | 88 | 0.0 | 4.8 | 0.00 | 0.05 | 0.00 | 80 | 1016.8 |
| 20260507175014 | 12 | 88 | 1.6 | 4.8 | 0.00 | 0.05 | 0.00 | 79 | 1016.7 |
| 20260507174513 | 12 | 88 | 0.0 | 4.8 | 0.00 | 0.05 | 0.00 | 80 | 1016.6 |
| 20260507174013 | 12 | 88 | 0.0 | 3.2 | 0.00 | 0.05 | 0.00 | 80 | 1016.6 |
| 20260507173514 | 12 | 88 | 0.0 | 4.8 | 0.00 | 0.05 | 0.00 | 80 | 1016.6 |
| 20260507173011 | 12 | 88 | 0.0 | 4.8 | 0.00 | 0.05 | 0.00 | 79 | 1016.6 |
| 20260507172510 | 12 | 88 | 0.0 | 1.6 | 0.00 | 0.05 | 0.00 | 81 | 1016.5 |
| 20260507172010 | 12 | 88 | 0.0 | 1.6 | 0.00 | 0.05 | 0.00 | 81 | 1016.5 |
| 20260507171510 | 12 | 88 | 0.0 | 3.2 | 0.00 | 0.05 | 0.00 | 83 | 1016.4 |
| 20260507171010 | 12 | 88 | 0.0 | 4.8 | 0.00 | 0.05 | 0.00 | 83 | 1016.5 |
| 20260507170510 | 12 | 88 | 1.6 | 4.8 | 0.00 | 0.05 | 0.00 | 84 | 1016.5 |
| 20260507170012 | 12 | 88 | 1.6 | 4.8 | 0.00 | 0.05 | 0.00 | 84 | 1016.4 |
| 20260507165509 | 12 | 86 | 1.6 | 4.8 | 0.00 | 0.05 | 0.00 | 83 | 1016.3 |
| 20260507165009 | 12 | 85 | 1.6 | 3.2 | 0.00 | 0.05 | 0.00 | 83 | 1016.3 |
| 20260507164509 | 12 | 85 | 1.6 | 3.2 | 0.00 | 0.05 | 0.00 | 83 | 1016.4 |
| 20260507164009 | 12 | 85 | 0.0 | 3.2 | 0.00 | 0.05 | 0.00 | 83 | 1016.3 |
| 20260507163508 | 12 | 85 | 0.0 | 0.0 | 0.00 | 0.05 | 0.00 | 83 | 1016.3 |
| 20260507163008 | 12 | 85 | 0.0 | 1.6 | 0.00 | 0.05 | 0.00 | 84 | 1016.2 |
| 20260507162509 | 12 | 85 | 0.0 | 3.2 | 0.00 | 0.05 | 0.00 | 83 | 1016.3 |
| 20260507162007 | 12 | 85 | 0.0 | 4.8 | 0.00 | 0.05 | 0.00 | 82 | 1016.3 |
| 20260507161507 | 12 | 85 | 1.6 | 4.8 | 0.00 | 0.05 | 0.00 | 82 | 1016.3 |
| 20260507161008 | 12 | 85 | 0.0 | 3.2 | 0.00 | 0.05 | 0.00 | 80 | 1016.3 |
| 20260507160509 | 12 | 85 | 0.0 | 3.2 | 0.00 | 0.05 | 0.00 | 79 | 1016.1 |
| 20260507160007 | 12 | 85 | 0.0 | 1.6 | 0.00 | 0.05 | 0.00 | 80 | 1016.1 |
| 20260507155510 | 12 | 85 | 0.0 | 3.2 | 0.00 | 0.05 | 0.00 | 79 | 1016.1 |
| 20260507155006 | 12 | 85 | 1.6 | 3.2 | 0.00 | 0.05 | 0.00 | 77 | 1016.1 |
| 20260507154509 | 12 | 85 | 0.0 | 3.2 | 0.00 | 0.05 | 0.00 | 78 | 1016.1 |
| 20260507154008 | 12 | 85 | 0.0 | 3.2 | 0.00 | 0.05 | 0.00 | 77 | 1016.1 |
| 20260507153505 | 12 | 85 | 0.0 | 3.2 | 0.00 | 0.05 | 0.00 | 77 | 1016.0 |
| 20260507153008 | 12 | 85 | 0.0 | 4.8 | 0.00 | 0.05 | 0.00 | 77 | 1016.0 |
| 20260507152506 | 12 | 85 | 1.6 | 4.8 | 0.00 | 0.05 | 0.00 | 77 | 1016.0 |
| 20260507152006 | 12 | 85 | 0.0 | 4.8 | 0.00 | 0.05 | 0.00 | 76 | 1016.1 |
| 20260507151505 | 13 | 85 | 1.6 | 4.8 | 0.00 | 0.05 | 0.00 | 77 | 1016.1 |
| 20260507151003 | 13 | 85 | 0.0 | 4.8 | 0.00 | 0.05 | 0.00 | 78 | 1016.1 |
| 20260507150504 | 13 | 85 | 1.6 | 6.4 | 0.00 | 0.05 | 0.00 | 77 | 1015.9 |
| 20260507150004 | 13 | 85 | 1.6 | 6.4 | 0.00 | 0.05 | 0.00 | 76 | 1016.0 |
| 20260507145504 | 13 | 85 | 1.6 | 6.4 | 0.00 | 0.33 | 0.00 | 75 | 1015.9 |
| 20260507145005 | 13 | 82 | 3.2 | 6.4 | 0.00 | 0.33 | 0.00 | 76 | 1015.9 |
| 20260507144506 | 13 | 82 | 1.6 | 6.4 | 0.00 | 0.33 | 0.00 | 77 | 1015.8 |
| 20260507144003 | 12 | 82 | 1.6 | 6.4 | 0.00 | 0.33 | 0.00 | 77 | 1015.9 |
| 20260507143504 | 12 | 82 | 1.6 | 8.0 | 0.00 | 0.33 | 0.00 | 77 | 1015.8 |
| 20260507143004 | 12 | 82 | 1.6 | 8.0 | 0.00 | 0.33 | 0.00 | 77 | 1015.8 |
| 20260507142503 | 12 | 78 | 1.6 | 8.0 | 0.00 | 0.33 | 0.00 | 77 | 1015.8 |
| 20260507142002 | 12 | 34 | 3.2 | 9.7 | 0.00 | 0.33 | 0.00 | 77 | 1015.9 |
| 20260507141501 | 13 | 92 | 3.2 | 6.4 | 0.00 | 0.33 | 0.00 | 77 | 1015.8 |
| 20260507141002 | 13 | 162 | 3.2 | 8.0 | 0.00 | 0.33 | 0.00 | 77 | 1015.8 |
| 20260507140504 | 13 | 165 | 1.6 | 4.8 | 0.00 | 0.33 | 0.00 | 77 | 1015.8 |
| 20260507140006 | 13 | 165 | 1.6 | 3.2 | 0.00 | 0.33 | 0.00 | 77 | 1015.7 |
| 20260507135502 | 13 | 165 | 0.0 | 3.2 | 0.00 | 0.33 | 0.00 | 78 | 1015.7 |
| 20260507135001 | 13 | 165 | 0.0 | 3.2 | 0.00 | 0.33 | 0.00 | 79 | 1015.8 |
| 20260507134602 | 13 | 165 | 0.0 | 3.2 | 0.00 | 0.33 | 0.00 | 81 | 1015.7 |
| 20260507134101 | 12 | 165 | 0.0 | 3.2 | 0.00 | 0.33 | 0.00 | 79 | 1015.7 |
| 20260507133559 | 12 | 165 | 1.6 | 3.2 | 0.00 | 0.33 | 0.00 | 78 | 1015.6 |
| 20260507133108 | 12 | 165 | 0.0 | 3.2 | 0.00 | 0.33 | 0.00 | 78 | 1015.6 |
| 20260507132558 | 12 | 165 | 0.0 | 1.6 | 0.00 | 0.33 | 0.00 | 78 | 1015.6 |
| 20260507132058 | 12 | 165 | 0.0 | 3.2 | 0.00 | 0.33 | 0.00 | 79 | 1015.6 |
| 20260507131612 | 12 | 165 | 0.0 | 3.2 | 0.00 | 0.33 | 0.00 | 78 | 1015.5 |
| 20260507131057 | 13 | 165 | 0.0 | 8.0 | 0.00 | 0.33 | 0.00 | 76 | 1015.4 |
| 20260507130556 | 12 | 165 | 1.6 | 11.3 | 0.00 | 0.33 | 0.00 | 77 | 1015.4 |
| 20260507130056 | 13 | 168 | 4.8 | 11.3 | 0.00 | 0.33 | 0.00 | 79 | 1015.4 |
| 20260507125556 | 13 | 96 | 1.6 | 3.2 | 0.00 | 0.33 | 0.00 | 78 | 1015.3 |
| 20260507125055 | 13 | 96 | 0.0 | 6.4 | 0.00 | 0.33 | 0.00 | 78 | 1015.4 |
| 20260507124557 | 12 | 96 | 1.6 | 6.4 | 0.00 | 0.33 | 0.00 | 79 | 1015.4 |
| 20260507124055 | 12 | 96 | 0.0 | 4.8 | 0.00 | 0.33 | 0.00 | 79 | 1015.3 |
| 20260507123555 | 12 | 96 | 3.2 | 6.4 | 0.00 | 0.33 | 0.00 | 78 | 1015.3 |
| 20260507123054 | 12 | 96 | 1.6 | 6.4 | 0.00 | 0.33 | 0.00 | 77 | 1015.3 |
| 20260507122553 | 12 | 96 | 1.6 | 6.4 | 0.00 | 0.33 | 0.00 | 79 | 1015.2 |
| 20260507122053 | 12 | 96 | 3.2 | 6.4 | 0.00 | 0.33 | 0.00 | 78 | 1015.1 |
| 20260507121553 | 12 | 94 | 1.6 | 9.7 | 0.00 | 0.33 | 0.00 | 78 | 1015.1 |
| 20260507121053 | 12 | 94 | 3.2 | 9.7 | 0.00 | 0.33 | 0.00 | 77 | 1015.1 |
| 20260507120553 | 13 | 94 | 3.2 | 9.7 | 0.00 | 0.33 | 0.00 | 75 | 1015.1 |
| 20260507120053 | 13 | 14 | 1.6 | 6.4 | 0.00 | 0.33 | 0.00 | 75 | 1015.0 |
| 20260507115553 | 13 | 81 | 1.6 | 9.7 | 0.00 | 0.33 | 0.00 | 74 | 1015.1 |
| 20260507115052 | 13 | 78 | 1.6 | 12.9 | 0.00 | 0.33 | 0.00 | 74 | 1015.1 |
| 20260507114553 | 13 | 355 | 3.2 | 12.9 | 0.00 | 0.33 | 0.00 | 74 | 1015.1 |
| 20260507114052 | 13 | 320 | 3.2 | 9.7 | 0.00 | 0.33 | 0.00 | 73 | 1015.0 |
| 20260507113551 | 13 | 46 | 3.2 | 9.7 | 0.00 | 0.33 | 0.00 | 72 | 1015.0 |
| 20260507113053 | 13 | 13 | 3.2 | 9.7 | 0.00 | 0.33 | 0.00 | 72 | 1015.1 |
| 20260507112553 | 13 | 72 | 3.2 | 9.7 | 0.00 | 0.33 | 0.00 | 73 | 1015.0 |
| 20260507112053 | 13 | 336 | 4.8 | 9.7 | 0.00 | 0.33 | 0.00 | 73 | 1015.0 |
| 20260507111550 | 13 | 343 | 3.2 | 9.7 | 0.00 | 0.33 | 0.00 | 75 | 1015.0 |
| 20260507111051 | 13 | 347 | 3.2 | 14.5 | 0.00 | 0.33 | 0.00 | 75 | 1015.0 |
| 20260507110548 | 13 | 355 | 4.8 | 14.5 | 0.00 | 0.33 | 0.00 | 75 | 1015.0 |
| 20260507110049 | 13 | 341 | 4.8 | 9.7 | 0.00 | 0.33 | 0.00 | 74 | 1014.9 |
| 20260507105547 | 13 | 344 | 4.8 | 9.7 | 0.00 | 0.33 | 0.00 | 76 | 1014.9 |
| 20260507105047 | 13 | 344 | 3.2 | 12.9 | 0.00 | 0.33 | 0.00 | 77 | 1015.0 |
| 20260507104548 | 12 | 30 | 4.8 | 12.9 | 0.00 | 0.33 | 0.00 | 76 | 1015.1 |
| 20260507104047 | 13 | 336 | 4.8 | 9.7 | 0.00 | 0.33 | 0.00 | 78 | 1015.1 |
| 20260507103544 | 12 | 355 | 4.8 | 9.7 | 0.00 | 0.33 | 0.00 | 78 | 1015.0 |
| 20260507103044 | 12 | 348 | 4.8 | 12.9 | 0.00 | 0.33 | 0.00 | 79 | 1015.1 |
| 20260507102542 | 12 | 337 | 4.8 | 12.9 | 0.00 | 0.33 | 0.00 | 79 | 1015.0 |
| 20260507102042 | 12 | 333 | 1.6 | 6.4 | 0.00 | 0.33 | 0.00 | 82 | 1014.9 |
| 20260507101541 | 12 | 333 | 3.2 | 8.0 | 0.00 | 0.33 | 0.00 | 82 | 1014.9 |
| 20260507101040 | 12 | 333 | 3.2 | 8.0 | 0.00 | 0.33 | 0.00 | 82 | 1014.9 |
| 20260507100539 | 11 | 331 | 1.6 | 8.0 | 0.00 | 0.33 | 0.00 | 83 | 1014.8 |
| 20260507100045 | 11 | 325 | 1.6 | 4.8 | 0.00 | 0.33 | 0.00 | 84 | 1014.8 |
| 20260507095537 | 11 | 325 | 0.0 | 4.8 | 0.00 | 0.33 | 0.00 | 84 | 1014.8 |
| 20260507095036 | 11 | 325 | 0.0 | 3.2 | 0.00 | 0.33 | 0.00 | 85 | 1014.6 |
| 20260507094536 | 11 | 325 | 0.0 | 3.2 | 0.00 | 0.33 | 0.00 | 85 | 1014.7 |
| 20260507094038 | 11 | 325 | 0.0 | 6.4 | 0.00 | 0.33 | 0.00 | 85 | 1014.6 |
| 20260507093535 | 11 | 325 | 3.2 | 6.4 | 0.00 | 0.33 | 0.00 | 85 | 1014.5 |
| 20260507093038 | 11 | 325 | 0.0 | 8.0 | 0.00 | 0.33 | 0.00 | 85 | 1014.4 |
| 20260507092534 | 11 | 325 | 3.2 | 8.0 | 0.00 | 0.33 | 0.00 | 85 | 1014.6 |
| 20260507092032 | 11 | 325 | 1.6 | 8.0 | 0.00 | 0.33 | 0.00 | 85 | 1014.5 |
| 20260507091534 | 11 | 324 | 1.6 | 6.4 | 0.00 | 0.33 | 0.00 | 86 | 1014.4 |
| 20260507091031 | 11 | 324 | 0.0 | 8.0 | 0.00 | 0.33 | 0.00 | 87 | 1014.4 |
| 20260507090530 | 11 | 324 | 3.2 | 8.0 | 0.00 | 0.33 | 0.00 | 87 | 1014.3 |
| 20260507090031 | 11 | 321 | 1.6 | 6.4 | 0.00 | 0.33 | 0.00 | 88 | 1014.3 |
| 20260507085530 | 10 | 321 | 3.2 | 6.4 | 0.00 | 0.33 | 0.00 | 88 | 1014.2 |
| 20260507085030 | 10 | 321 | 1.6 | 8.0 | 0.00 | 0.33 | 0.00 | 87 | 1014.3 |
| 20260507084529 | 10 | 319 | 1.6 | 8.0 | 0.00 | 0.33 | 0.00 | 87 | 1014.2 |
| 20260507084029 | 11 | 338 | 1.6 | 8.0 | 0.00 | 0.33 | 0.00 | 87 | 1014.2 |
| 20260507083529 | 10 | 338 | 1.6 | 8.0 | 0.00 | 0.33 | 0.00 | 88 | 1014.3 |
| 20260507083029 | 10 | 339 | 3.2 | 8.0 | 0.00 | 0.33 | 0.00 | 87 | 1014.2 |
| 20260507082528 | 10 | 339 | 0.0 | 8.0 | 0.00 | 0.33 | 0.00 | 88 | 1014.2 |
| 20260507082028 | 10 | 339 | 3.2 | 12.9 | 0.00 | 0.33 | 0.00 | 88 | 1014.1 |
| 20260507081527 | 11 | 333 | 0.0 | 8.0 | 0.00 | 0.33 | 0.00 | 88 | 1014.1 |
| 20260507081027 | 11 | 331 | 0.0 | 8.0 | 0.00 | 0.33 | 0.00 | 88 | 1014.1 |
| 20260507080527 | 11 | 333 | 1.6 | 8.0 | 0.00 | 0.33 | 0.00 | 89 | 1014.0 |
| 20260507080032 | 11 | 333 | 1.6 | 8.0 | 0.00 | 0.33 | 0.00 | 88 | 1014.0 |
| 20260507075525 | 11 | 333 | 1.6 | 6.4 | 0.00 | 0.33 | 0.00 | 89 | 1013.9 |
| 20260507075022 | 11 | 333 | 0.0 | 4.8 | 0.00 | 0.33 | 0.00 | 90 | 1013.8 |
| 20260507074521 | 10 | 333 | 1.6 | 9.7 | 0.00 | 0.33 | 0.00 | 90 | 1013.9 |
| 20260507074021 | 10 | 324 | 1.6 | 9.7 | 0.00 | 0.33 | 0.00 | 91 | 1013.7 |
| 20260507073520 | 10 | 315 | 0.0 | 4.8 | 0.00 | 0.33 | 0.00 | 91 | 1013.7 |
| 20260507073019 | 10 | 337 | 1.6 | 3.2 | 0.00 | 0.33 | 0.00 | 90 | 1013.7 |
| 20260507072519 | 10 | 337 | 1.6 | 6.4 | 0.00 | 0.33 | 0.00 | 91 | 1013.6 |
| 20260507072018 | 10 | 337 | 0.0 | 6.4 | 0.00 | 0.33 | 0.00 | 91 | 1013.5 |
| 20260507071548 | 10 | 337 | 0.0 | 8.0 | 0.00 | 0.33 | 0.00 | 91 | 1013.4 |
| 20260507071018 | 10 | 337 | 1.6 | 8.0 | 0.00 | 0.33 | 0.00 | 91 | 1013.4 |
| 20260507070518 | 9 | 337 | 3.2 | 8.0 | 0.00 | 0.33 | 0.00 | 91 | 1013.4 |
| 20260507070017 | 9 | 337 | 0.0 | 8.0 | 0.00 | 0.33 | 0.00 | 90 | 1013.4 |
| 20260507065517 | 9 | 336 | 3.2 | 8.0 | 0.00 | 0.33 | 0.00 | 90 | 1013.4 |
| 20260507065018 | 9 | 338 | 3.2 | 9.7 | 0.00 | 0.33 | 0.00 | 90 | 1013.4 |
| 20260507064516 | 9 | 338 | 4.8 | 9.7 | 0.00 | 0.33 | 0.00 | 89 | 1013.4 |
| 20260507064020 | 9 | 338 | 3.2 | 8.0 | 0.00 | 0.33 | 0.00 | 89 | 1013.2 |
| 20260507063514 | 9 | 338 | 0.0 | 8.0 | 0.00 | 0.33 | 0.00 | 89 | 1013.1 |
| 20260507063013 | 9 | 336 | 1.6 | 8.0 | 0.00 | 0.33 | 0.00 | 89 | 1013.0 |
| 20260507062516 | 9 | 335 | 1.6 | 6.4 | 0.00 | 0.33 | 0.00 | 89 | 1013.0 |
| 20260507062013 | 9 | 335 | 0.0 | 12.9 | 0.00 | 0.33 | 0.00 | 89 | 1012.9 |
| 20260507061514 | 9 | 335 | 3.2 | 12.9 | 0.00 | 0.33 | 0.00 | 89 | 1012.9 |
| 20260507061011 | 9 | 331 | 1.6 | 8.0 | 0.00 | 0.33 | 0.00 | 89 | 1012.8 |
| 20260507060511 | 9 | 327 | 1.6 | 8.0 | 0.00 | 0.33 | 0.00 | 89 | 1012.7 |
| 20260507060014 | 9 | 329 | 0.0 | 6.4 | 0.00 | 0.33 | 0.00 | 90 | 1012.7 |
| 20260507055511 | 9 | 329 | 0.0 | 8.0 | 0.00 | 0.33 | 0.00 | 90 | 1012.6 |
| 20260507055014 | 9 | 329 | 1.6 | 8.0 | 0.00 | 0.33 | 0.00 | 90 | 1012.5 |
| 20260507054511 | 9 | 329 | 1.6 | 8.0 | 0.00 | 0.33 | 0.00 | 90 | 1012.5 |
| 20260507054014 | 9 | 329 | 0.0 | 8.0 | 0.00 | 0.33 | 0.00 | 90 | 1012.3 |
| 20260507053509 | 9 | 328 | 1.6 | 8.0 | 0.00 | 0.33 | 0.00 | 90 | 1012.3 |
| 20260507053012 | 9 | 328 | 1.6 | 8.0 | 0.00 | 0.33 | 0.00 | 91 | 1012.3 |
| 20260507052510 | 9 | 325 | 1.6 | 6.4 | 0.00 | 0.33 | 0.00 | 91 | 1012.2 |
| 20260507052007 | 9 | 325 | 0.0 | 6.4 | 0.00 | 0.33 | 0.00 | 91 | 1012.2 |
| 20260507051507 | 9 | 332 | 1.6 | 6.4 | 0.00 | 0.33 | 0.00 | 91 | 1011.9 |
| 20260507051007 | 9 | 332 | 0.0 | 6.4 | 0.00 | 0.33 | 0.00 | 91 | 1012.0 |
| 20260507050506 | 9 | 331 | 1.6 | 6.4 | 0.00 | 0.33 | 0.00 | 91 | 1011.9 |
| 20260507050006 | 9 | 336 | 1.6 | 6.4 | 0.00 | 0.33 | 0.00 | 92 | 1011.8 |
| 20260507045507 | 8 | 336 | 0.0 | 6.4 | 0.00 | 0.33 | 0.00 | 92 | 1011.8 |
| 20260507045007 | 8 | 336 | 1.6 | 9.7 | 0.00 | 0.33 | 0.00 | 92 | 1011.7 |
| 20260507044503 | 8 | 336 | 1.6 | 9.7 | 0.00 | 0.33 | 0.00 | 92 | 1011.6 |
| 20260507044002 | 8 | 335 | 1.6 | 8.0 | 0.00 | 0.33 | 0.00 | 92 | 1011.6 |
| 20260507043501 | 8 | 335 | 1.6 | 6.4 | 0.00 | 0.33 | 0.00 | 92 | 1011.6 |
| 20260507043003 | 8 | 335 | 1.6 | 6.4 | 0.00 | 0.33 | 0.00 | 92 | 1011.5 |
| 20260507042600 | 9 | 335 | 0.0 | 6.4 | 0.00 | 0.33 | 0.00 | 92 | 1011.5 |
| 20260507042103 | 9 | 335 | 0.0 | 8.0 | 0.00 | 0.33 | 0.00 | 92 | 1011.4 |
| 20260507041559 | 9 | 335 | 0.0 | 4.8 | 0.00 | 0.33 | 0.00 | 92 | 1011.2 |
| 20260507041101 | 9 | 335 | 0.0 | 4.8 | 0.00 | 0.33 | 0.00 | 92 | 1011.3 |
| 20260507040559 | 9 | 335 | 0.0 | 6.4 | 0.00 | 0.33 | 0.00 | 92 | 1011.2 |
| 20260507035557 | 9 | 335 | 0.0 | 4.8 | 0.00 | 0.33 | 0.00 | 92 | 1011.2 |
| 20260507035057 | 9 | 335 | 0.0 | 4.8 | 0.00 | 0.33 | 0.00 | 92 | 1011.2 |
| 20260507034557 | 9 | 335 | 0.0 | 6.4 | 0.00 | 0.33 | 0.00 | 92 | 1011.2 |
| 20260507034055 | 9 | 335 | 0.0 | 6.4 | 0.00 | 0.33 | 0.00 | 92 | 1011.1 |
| 20260507033555 | 9 | 335 | 0.0 | 6.4 | 0.00 | 0.33 | 0.00 | 92 | 1011.1 |
| 20260507033055 | 9 | 336 | 1.6 | 6.4 | 0.00 | 0.33 | 0.00 | 92 | 1011.1 |
| 20260507032554 | 9 | 334 | 0.0 | 6.4 | 0.00 | 0.33 | 0.00 | 92 | 1011.1 |
| 20260507032053 | 9 | 334 | 0.0 | 6.4 | 0.00 | 0.33 | 0.00 | 92 | 1011.1 |
| 20260507031555 | 9 | 334 | 1.6 | 6.4 | 0.00 | 0.33 | 0.00 | 92 | 1011.1 |
| 20260507031052 | 9 | 334 | 1.6 | 4.8 | 0.00 | 0.33 | 0.00 | 92 | 1011.0 |
| 20260507030551 | 9 | 334 | 0.0 | 6.4 | 0.00 | 0.33 | 0.00 | 92 | 1011.0 |
| 20260507030051 | 9 | 334 | 1.6 | 6.4 | 0.00 | 0.33 | 0.00 | 92 | 1011.0 |
| 20260507025550 | 9 | 334 | 0.0 | 6.4 | 0.00 | 0.38 | 0.00 | 91 | 1010.9 |
| 20260507025052 | 9 | 334 | 0.0 | 8.0 | 0.00 | 0.38 | 0.00 | 91 | 1010.9 |
| 20260507024559 | 9 | 334 | 1.6 | 8.0 | 0.00 | 0.38 | 0.00 | 91 | 1010.8 |
| 20260507024048 | 9 | 334 | 0.0 | 8.0 | 0.00 | 0.38 | 0.00 | 91 | 1010.9 |
| 20260507023548 | 9 | 334 | 1.6 | 9.7 | 0.00 | 0.38 | 0.00 | 91 | 1010.9 |
| 20260507023047 | 9 | 338 | 3.2 | 9.7 | 0.00 | 0.38 | 0.00 | 91 | 1010.8 |
| 20260507022547 | 9 | 335 | 1.6 | 6.4 | 0.00 | 0.38 | 0.00 | 91 | 1010.9 |
| 20260507022047 | 9 | 335 | 1.6 | 6.4 | 0.00 | 0.38 | 0.00 | 91 | 1010.8 |
| 20260507021546 | 10 | 335 | 0.0 | 4.8 | 0.00 | 0.38 | 0.00 | 91 | 1010.8 |
| 20260507021046 | 10 | 335 | 0.0 | 4.8 | 0.00 | 0.38 | 0.00 | 91 | 1010.7 |
| 20260507020548 | 10 | 335 | 0.0 | 6.4 | 0.00 | 0.38 | 0.00 | 91 | 1010.8 |
| 20260507020045 | 10 | 335 | 0.0 | 6.4 | 0.00 | 0.38 | 0.00 | 91 | 1010.7 |
| 20260507015544 | 10 | 335 | 3.2 | 6.4 | 0.00 | 0.41 | 0.00 | 91 | 1010.6 |
| 20260507015044 | 10 | 334 | 1.6 | 9.7 | 0.00 | 0.41 | 0.00 | 90 | 1010.5 |
| 20260507014551 | 10 | 333 | 1.6 | 8.0 | 0.00 | 0.41 | 0.00 | 90 | 1010.5 |
| 20260507014044 | 10 | 333 | 1.6 | 6.4 | 0.00 | 0.41 | 0.00 | 90 | 1010.5 |
| 20260507013546 | 10 | 333 | 1.6 | 6.4 | 0.00 | 0.41 | 0.00 | 91 | 1010.5 |
| 20260507013045 | 10 | 333 | 1.6 | 6.4 | 0.00 | 0.41 | 0.00 | 91 | 1010.5 |
| 20260507012545 | 10 | 333 | 1.6 | 4.8 | 0.00 | 0.41 | 0.00 | 91 | 1010.4 |
| 20260507012043 | 10 | 333 | 1.6 | 6.4 | 0.00 | 0.41 | 0.00 | 91 | 1010.4 |
| 20260507011542 | 9 | 333 | 3.2 | 6.4 | 0.00 | 0.41 | 0.00 | 91 | 1010.3 |
| 20260507011042 | 10 | 333 | 3.2 | 8.0 | 0.00 | 0.41 | 0.00 | 90 | 1010.5 |
| 20260507010541 | 10 | 333 | 1.6 | 8.0 | 0.00 | 0.41 | 0.00 | 90 | 1010.4 |
| 20260507010041 | 10 | 333 | 0.0 | 6.4 | 0.00 | 0.41 | 0.00 | 90 | 1010.5 |
| 20260507005541 | 10 | 333 | 1.6 | 8.0 | 0.00 | 1.37 | 0.00 | 90 | 1010.4 |
| 20260507005040 | 10 | 333 | 1.6 | 8.0 | 0.00 | 1.37 | 0.00 | 90 | 1010.4 |
| 20260507004544 | 10 | 333 | 1.6 | 6.4 | 0.00 | 1.37 | 0.00 | 90 | 1010.5 |
| 20260507004039 | 10 | 333 | 1.6 | 6.4 | 0.00 | 1.37 | 0.00 | 89 | 1010.4 |
| 20260507003538 | 10 | 333 | 1.6 | 8.0 | 0.00 | 1.37 | 0.00 | 89 | 1010.4 |
| 20260507003038 | 10 | 332 | 1.6 | 8.0 | 0.00 | 1.37 | 0.00 | 89 | 1010.3 |
| 20260507002538 | 10 | 337 | 1.6 | 9.7 | 0.00 | 1.37 | 0.00 | 89 | 1010.2 |
| 20260507002038 | 10 | 338 | 3.2 | 9.7 | 0.00 | 1.37 | 0.00 | 89 | 1010.2 |
| 20260507001546 | 10 | 337 | 1.6 | 12.9 | 0.00 | 1.37 | 0.00 | 89 | 1010.3 |
| 20260507001037 | 10 | 337 | 3.2 | 12.9 | 0.00 | 1.37 | 0.00 | 89 | 1010.2 |
| 20260507000536 | 10 | 338 | 3.2 | 9.7 | 0.00 | 1.37 | 0.00 | 88 | 1010.1 |
| 20260507000037 | 10 | 336 | 1.6 | 8.0 | 0.00 | 1.37 | 0.00 | 88 | 1010.1 |
| 20260506235537 | 10 | 336 | 3.2 | 8.0 | 0.00 | 1.52 | 0.00 | 88 | 1010.2 |
| 20260506235035 | 10 | 337 | 1.6 | 6.4 | 0.00 | 1.52 | 0.00 | 88 | 1010.2 |
| 20260506234535 | 10 | 337 | 0.0 | 4.8 | 0.00 | 1.52 | 0.00 | 88 | 1010.2 |
| 20260506234038 | 10 | 337 | 0.0 | 8.0 | 0.00 | 1.52 | 0.00 | 88 | 1010.1 |
| 20260506233535 | 10 | 337 | 3.2 | 9.7 | 0.00 | 1.52 | 0.00 | 88 | 1010.0 |
| 20260506233034 | 10 | 337 | 3.2 | 12.9 | 0.00 | 1.52 | 0.00 | 88 | 1010.0 |
| 20260506232535 | 10 | 329 | 1.6 | 12.9 | 0.00 | 1.52 | 0.00 | 88 | 1010.1 |
| 20260506232032 | 10 | 340 | 3.2 | 9.7 | 0.00 | 1.52 | 0.00 | 88 | 1009.9 |
| 20260506231531 | 10 | 340 | 3.2 | 6.4 | 0.00 | 1.52 | 0.00 | 89 | 1009.8 |
| 20260506231031 | 10 | 340 | 3.2 | 8.0 | 0.00 | 1.52 | 0.00 | 89 | 1009.8 |
| 20260506230531 | 10 | 340 | 3.2 | 9.7 | 0.00 | 1.52 | 0.00 | 89 | 1009.8 |
| 20260506230030 | 10 | 340 | 3.2 | 9.7 | 0.00 | 1.52 | 0.00 | 89 | 1009.8 |
| 20260506225530 | 10 | 340 | 3.2 | 8.0 | 0.00 | 1.52 | 0.00 | 89 | 1009.8 |
| 20260506225029 | 10 | 340 | 3.2 | 9.7 | 0.00 | 1.52 | 0.00 | 89 | 1009.9 |
| 20260506224530 | 10 | 339 | 1.6 | 9.7 | 0.00 | 1.52 | 0.00 | 89 | 1009.8 |
| 20260506224029 | 10 | 347 | 1.6 | 8.0 | 0.00 | 1.52 | 0.00 | 89 | 1009.7 |
| 20260506223528 | 10 | 347 | 3.2 | 8.0 | 0.00 | 1.52 | 0.00 | 89 | 1009.7 |
| 20260506223028 | 10 | 347 | 1.6 | 8.0 | 0.00 | 1.52 | 0.00 | 89 | 1009.8 |
| 20260506222531 | 10 | 347 | 3.2 | 9.7 | 0.00 | 1.52 | 0.00 | 89 | 1009.7 |
| 20260506222028 | 10 | 341 | 4.8 | 9.7 | 0.00 | 1.52 | 0.00 | 89 | 1009.6 |
| 20260506221526 | 10 | 340 | 3.2 | 9.7 | 0.00 | 1.52 | 0.00 | 89 | 1009.6 |
| 20260506221026 | 10 | 342 | 3.2 | 12.9 | 0.00 | 1.52 | 0.00 | 89 | 1009.6 |
| 20260506220525 | 10 | 333 | 3.2 | 8.0 | 0.00 | 1.52 | 0.00 | 89 | 1009.3 |
| 20260506220034 | 10 | 329 | 1.6 | 8.0 | 0.00 | 1.52 | 0.00 | 89 | 1009.4 |
| 20260506215523 | 11 | 329 | 1.6 | 8.0 | 0.00 | 1.52 | 1.52 | 89 | 1009.3 |
| 20260506215024 | 11 | 329 | 1.6 | 6.4 | 0.00 | 1.52 | 1.52 | 89 | 1009.2 |
| 20260506214526 | 11 | 329 | 3.2 | 8.0 | 0.00 | 1.52 | 1.52 | 89 | 1009.3 |
| 20260506214023 | 11 | 328 | 3.2 | 8.0 | 0.00 | 1.52 | 1.52 | 88 | 1009.3 |
| 20260506213522 | 11 | 355 | 3.2 | 9.7 | 0.00 | 1.52 | 1.52 | 88 | 1009.3 |
| 20260506213025 | 11 | 355 | 6.4 | 9.7 | 0.00 | 1.52 | 1.52 | 89 | 1009.3 |
| 20260506212520 | 11 | 340 | 1.6 | 9.7 | 0.00 | 1.52 | 1.52 | 89 | 1009.2 |
| 20260506212020 | 11 | 340 | 4.8 | 12.9 | 0.00 | 1.52 | 1.52 | 89 | 1009.1 |
| 20260506211520 | 11 | 342 | 4.8 | 14.5 | 0.00 | 1.52 | 1.52 | 89 | 1009.0 |
| 20260506211020 | 11 | 337 | 3.2 | 14.5 | 0.00 | 1.52 | 1.52 | 89 | 1009.0 |
| 20260506210518 | 11 | 333 | 4.8 | 9.7 | 0.00 | 1.52 | 1.52 | 89 | 1008.9 |
| 20260506210019 | 11 | 338 | 4.8 | 9.7 | 0.00 | 1.52 | 1.52 | 90 | 1008.9 |
| 20260506205517 | 11 | 344 | 3.2 | 9.7 | 0.00 | 1.55 | 1.52 | 90 | 1008.9 |
| 20260506205017 | 11 | 346 | 3.2 | 9.7 | 0.00 | 1.55 | 1.52 | 90 | 1008.8 |
| 20260506204517 | 11 | 346 | 1.6 | 8.0 | 0.00 | 1.55 | 1.52 | 90 | 1008.8 |
| 20260506204017 | 11 | 346 | 3.2 | 8.0 | 0.00 | 1.55 | 1.52 | 90 | 1008.8 |
| 20260506203516 | 11 | 343 | 3.2 | 8.0 | 0.00 | 1.55 | 1.52 | 90 | 1008.9 |
| 20260506203020 | 11 | 344 | 3.2 | 8.0 | 0.00 | 1.55 | 1.52 | 90 | 1008.8 |
| 20260506202514 | 11 | 343 | 4.8 | 12.9 | 0.00 | 1.55 | 1.52 | 90 | 1008.7 |
| 20260506202017 | 11 | 344 | 4.8 | 12.9 | 0.00 | 1.55 | 1.52 | 90 | 1008.6 |
| 20260506201512 | 11 | 338 | 3.2 | 6.4 | 0.00 | 1.55 | 1.52 | 90 | 1008.6 |
| 20260506201012 | 11 | 337 | 1.6 | 6.4 | 0.00 | 1.55 | 1.52 | 90 | 1008.5 |
| 20260506200511 | 11 | 337 | 3.2 | 6.4 | 0.00 | 1.55 | 1.52 | 90 | 1008.5 |
| 20260506200015 | 11 | 336 | 3.2 | 9.7 | 0.00 | 1.55 | 1.52 | 90 | 1008.5 |
| 20260506195510 | 11 | 336 | 3.2 | 9.7 | 0.00 | 1.55 | 1.52 | 90 | 1008.4 |
| 20260506195011 | 11 | 336 | 3.2 | 12.9 | 0.00 | 1.55 | 1.52 | 90 | 1008.3 |
| 20260506194509 | 11 | 331 | 6.4 | 12.9 | 0.00 | 1.55 | 1.52 | 90 | 1008.0 |
| 20260506194008 | 12 | 342 | 3.2 | 8.0 | 0.03 | 1.55 | 1.52 | 90 | 1008.1 |
| 20260506193511 | 12 | 342 | 3.2 | 8.0 | 0.03 | 1.55 | 1.52 | 90 | 1008.1 |
| 20260506193006 | 12 | 340 | 1.6 | 8.0 | 0.03 | 1.55 | 1.52 | 90 | 1007.9 |
| 20260506192505 | 12 | 340 | 1.6 | 9.7 | 0.03 | 1.55 | 1.52 | 90 | 1007.8 |
| 20260506192005 | 12 | 340 | 4.8 | 9.7 | 0.03 | 1.55 | 1.52 | 90 | 1007.6 |
| 20260506191504 | 12 | 342 | 3.2 | 14.5 | 0.03 | 1.55 | 1.52 | 90 | 1007.5 |
| 20260506191004 | 12 | 339 | 4.8 | 14.5 | 0.03 | 1.55 | 1.52 | 90 | 1007.5 |
| 20260506190504 | 12 | 342 | 4.8 | 12.9 | 0.03 | 1.55 | 1.52 | 90 | 1007.4 |